Location: West Cummington
(42.4920°N, 72.9680°W)
Time: 12:19:31
(UTC-04:00)

Daily predictions for brighter satellites

Satellite Brightness Start Highest point End
(mag) Time Altitude Azimuth Time Altitude Azimuth Time Altitude Azimuth
METEOR-M 4.4 19:29:19 10° S 19:34:39 80° WSW 19:40:02 10° NNW
FREGAT/IRIS 2.6 19:32:00 10° SSE 19:35:04 79° ENE 19:38:08 10° N
CZ-2D R/B 4.4 19:34:28 10° SE 19:37:41 25° ENE 19:40:54 10° NNE
Helios 1B rocket 4.0 19:36:54 10° NE 19:39:24 16° E 19:41:54 10° SE
Helios 1A 4.3 19:38:44 10° ESE 19:41:52 21° ENE 19:45:01 10° NNE
Cosmos 1437 Rocket 2.9 19:42:12 10° S 19:46:06 58° E 19:50:07 10° NNE
SJ-6B 2.8 19:43:09 10° S 19:46:53 82° W 19:50:38 10° NNW
H-2A R/B 4.4 19:43:05 10° SSW 19:47:47 27° SE 20:04:20 11° E
Cosmos 2098 4.3 19:45:26 10° S 19:48:52 85° W 19:51:52 10° N
Lacrosse 4 Rocket 1.2 19:45:18 10° SSW 19:49:20 73° ESE 19:53:23 10° NNE
Resurs 1-3 3.9 19:48:22 10° SE 19:52:34 47° ENE 19:56:47 10° N
In-Cosmos 22 4.5 19:52:18 10° N 19:57:21 41° ENE 20:02:19 10° SE
USA 215 3.8 19:52:31 10° ENE 19:58:26 35° SE 20:04:17 10° SSW
Cosmos 1844 Rocket 2.8 19:53:23 10° SSW 19:59:02 85° WNW 20:04:44 10° NNE
Spot 2 Rocket 3.5 19:54:48 10° SSE 19:59:50 65° ENE 20:04:55 10° N
Cosmos 2150 Rocket 3.9 19:56:23 10° SSW 20:01:31 81° ESE 20:06:41 10° NNE
Cosmos 1758 4.3 20:03:29 10° SE 20:06:44 25° E 20:10:01 10° NE
FengYun 1-2 T 4.4 20:01:58 10° SSE 20:07:32 81° WSW 20:13:11 10° NNW
Cosmos 1833 Rocket 4.0 20:03:37 10° N 20:08:04 23° NE 20:10:56 16° E
Cosmos 2278 Rocket 2.4 20:02:51 10° S 20:08:17 49° ESE 20:13:44 10° NE
Cosmos 1934 Rocket 3.9 20:06:08 10° S 20:12:17 79° E 20:18:23 10° N
Cosmos 1378 3.5 20:09:00 10° NNW 20:12:45 67° W 20:16:28 10° S
SAR-Lupe-4 3.9 20:10:59 13° SE 20:14:00 45° ENE 20:17:26 10° N
Cosmos 1898 Rocket 4.1 20:09:22 10° SSW 20:14:37 61° WNW 20:19:53 10° NNE
Cosmos 1939 Rocket 4.1 20:13:32 20° E 20:14:59 24° ENE 20:18:19 10° NNE
Cosmos 990 Rocket 3.9 20:10:25 10° SSW 20:15:39 82° ESE 20:20:56 10° NNE
Tiangong 1 1.1 20:13:11 10° W 20:16:05 59° SSW 20:17:22 28° SE
Cosmos 1953 3.1 20:13:29 10° SSE 20:17:04 30° E 20:20:39 10° NNE
Okean 3 Rocket 3.7 20:13:23 10° N 20:17:41 51° E 20:21:59 10° SSE
Envisat 3.6 20:14:18 16° SE 20:17:48 36° ENE 20:22:25 10° N
FENGYUN 3A 4.3 20:13:18 10° S 20:18:38 60° W 20:23:59 10° NNW
Cosmos 2297 4.5 20:15:54 10° SSE 20:20:41 28° ESE 20:25:29 10° NE
Meteor 1-24 Rocket 3.8 20:16:49 10° NNW 20:22:16 77° W 20:27:54 10° S
H-2A R/B 3.2 20:18:42 10° S 20:22:33 65° W 20:26:28 10° NNW
Cosmos 1125 Rocket 4.1 20:18:39 10° SSE 20:23:13 32° E 20:27:48 10° NE
USA 186 0.8 20:24:57 59° ESE 20:25:08 62° ENE 20:27:22 10° N
Abrixas 3.4 20:23:28 10° NW 20:26:08 34° NNE 20:26:54 29° NE
Geosat 4.0 20:26:45 10° NNE 20:31:49 89° WNW 20:36:50 10° SSW
USA 267 4.3 20:27:21 16° ENE 20:31:50 34° NNE 20:37:34 10° NW
SAR-Lupe-1 3.9 20:31:15 22° SSE 20:33:24 70° ENE 20:36:59 10° N
Cosmos 2082 Rocket 2.7 20:32:11 10° NNW 20:37:33 41° ENE 20:39:45 29° ESE
ALOS 4.0 20:33:22 10° SSW 20:37:33 33° W 20:41:47 10° NNW
Lacrosse 5 rocket 3.1 20:35:39 10° NNW 20:38:20 17° NNE 20:39:27 16° NE
GP-B 3.2 20:37:25 21° SSE 20:40:10 54° E 20:44:30 10° N
Resurs 01 Rocket 2.8 20:36:53 10° S 20:41:05 43° W 20:45:19 10° NNW
Meteor 1-4 Rocket 2.4 20:40:40 42° SE 20:41:27 54° E 20:44:51 10° NNE
CZ-3B DEB 2.9 20:30:42 10° SW 20:41:45 73° NW 20:46:35 10° NE
CZ-4B DEB 2.5 20:41:48 61° ESE 20:42:05 67° ENE 20:45:11 10° N
Cosmos 1766 4.3 20:38:41 10° SSW 20:42:26 47° WNW 20:46:13 10° N
Cosmos 1818 3.7 20:37:43 10° NNW 20:43:06 57° NE 20:45:20 33° ESE
Cosmos 1544 2.9 20:39:35 10° S 20:43:12 83° E 20:46:53 10° N
RESURS DK-1 2.8 20:39:14 10° NNW 20:43:19 58° WSW 20:46:08 19° S
ERS-1 Rocket 3.6 20:43:31 32° E 20:44:34 35° ENE 20:49:07 10° N
SL-27 R/B 3.8 20:44:12 10° NW 20:47:34 40° WSW 20:50:28 13° S
BREEZE-M DEB (TANK) 3.6 20:45:18 10° SSW 20:48:43 42° SE 20:58:59 10° ENE
Cosmos 2100 Rocket 4.2 20:44:06 14° SSE 20:49:12 46° E 20:55:14 10° NNE
Cosmos 1605 Rocket 4.2 20:43:47 10° SSW 20:50:01 77° W 20:56:24 10° N
Timation 1 Rocket 4.3 20:44:28 10° S 20:50:21 61° ESE 20:56:18 10° NNE
Meteor 1-29 2.8 20:47:03 10° NNE 20:50:32 81° ESE 20:52:31 24° S
COSMOS 2487 3.4 20:48:03 10° N 20:50:47 34° NE 20:50:47 34° NE
Lacrosse 5 1.9 20:48:30 10° SW 20:53:35 81° NW 20:58:11 13° NE
Cosmos 1766 Rocket 3.5 20:52:33 10° N 20:57:01 64° E 20:57:56 50° SE
Cosmos 1076 Rocket 3.4 20:53:51 10° N 20:58:08 88° W 20:59:48 36° S
SPOT 5 4.1 20:58:37 28° ENE 20:58:37 28° ENE 21:02:59 10° N
Cosmos 1269 Rocket 4.0 20:53:17 10° NNW 20:58:34 65° ENE 21:00:06 44° SE
Cosmos 2098 Rocket 4.3 20:54:14 10° S 21:01:16 88° E 21:08:56 10° N
Meteor 1-21 Rocket 4.2 20:56:17 10° N 21:02:07 87° E 21:05:51 24° S
ARGOS 4.2 21:06:43 28° ENE 21:06:43 28° ENE 21:10:49 10° N
Cosmos 1802 Rocket 4.1 21:05:09 41° SE 21:06:33 49° E 21:12:26 10° NNE
Cosmos 2344 4.3 21:06:35 10° SW 21:14:08 58° NW 21:22:53 10° NNE
Cosmos 2061 Rocket 4.0 21:11:25 32° SSE 21:14:27 63° E 21:20:48 10° NNE
Helios 1B rocket 3.6 21:10:59 10° N 21:14:56 44° WNW 21:18:50 10° SW
Helios 1A 4.5 21:14:06 14° SSW 21:17:13 34° W 21:21:03 10° NNW
Timation 2 Rocket 3.9 21:12:02 10° NNW 21:18:24 71° ENE 21:19:44 54° ESE
Cosmos 1867 3.4 21:13:02 10° SSW 21:18:26 70° ESE 21:23:53 10° NE
Cosmos 1674 3.0 21:15:15 10° NNW 21:18:34 63° NW 21:18:34 63° NW
Cosmos-2242 3.2 21:22:00 63° N 21:22:00 63° N 21:25:36 10° N
Cosmos 1340 Rocket 3.7 21:24:25 10° N 21:27:12 43° N 21:27:12 43° N
Lacrosse 4 Rocket 4.5 21:26:33 10° WNW 21:28:32 13° NW 21:30:33 10° NNW
Cosmos 1743 Rocket 4.3 21:24:36 10° N 21:27:44 43° NNE 21:27:44 43° NNE
Terra 4.2 21:34:10 12° NNE 21:34:10 12° NNE 21:34:44 10° NNE
Cosmos 1470 4.2 21:33:41 33° N 21:33:41 33° N 21:36:02 10° N
Cosmos 372 Rocket 4.0 21:29:54 10° SSW 21:34:59 77° WNW 21:40:10 10° NNE
USA 215 3.4 21:35:11 10° NE 21:41:42 69° NW 21:48:10 10° WSW
H-2A R/B 3.4 21:45:55 29° NNE 21:45:55 29° NNE 21:49:02 10° N
Cosmos 158 Rocket 4.4 21:43:52 10° NNW 21:48:51 55° WSW 21:49:00 55° WSW
Cosmos 1459 Rocket 4.2 21:45:22 22° SSW 21:49:29 66° W 21:55:40 10° N
NOAA 11 4.3 21:51:35 71° N 21:51:35 71° N 21:56:29 10° NNW
Cosmos 2173 Rocket 4.2 21:48:08 27° SSW 21:51:32 65° W 21:57:46 10° N
Cosmos 1833 Rocket 3.0 21:46:52 10° NNW 21:52:24 58° WSW 21:52:40 58° WSW
Cosmos 2278 Rocket 4.2 21:47:50 10° WSW 21:52:36 27° NW 21:57:24 10° N
CZ-3 Stage 3 3.8 21:32:36 10° W 21:53:33 39° SSW 21:54:42 37° S
USA 267 3.2 22:14:41 77° N 22:14:41 77° N 22:20:51 10° NW
Lacrosse 5 rocket 4.0 22:14:16 10° NW 22:15:09 16° NW 22:15:09 16° NW
Cosmos 2082 Rocket 3.6 22:16:34 10° NW 22:21:27 30° WSW 22:21:38 30° WSW
Lacrosse 5 3.9 22:33:11 10° WNW 22:37:14 23° NNW 22:37:28 23° NNW
CZ-3B DEB 4.3 22:50:33 10° WNW 22:54:17 18° NNW 22:54:17 18° NNW
